Regional Weather Roundup
Issued by NWS Upton, NY

Current Version | Previous Version | Graphics & Text | Print | Product List | Glossary Off
Versions: 1 2 3 4 5 6 7 8 9 10 11 12 13 14 15 16 17 18 19 20 21 22 23 24 25 26 27 28 29 30 31 32 33 34 35 36 37 38 39 40 41 42 43 44 45 46 47 48 49 50

000
ASUS41 KOKX 251305
RWROKX

REGIONAL WEATHER ROUNDUP
NATIONAL WEATHER SERVICE NEW YORK NY
900 AM EDT FRI JUL 25 2014

NOTE: "FAIR" INDICATES FEW OR NO CLOUDS BELOW 12,000 FEET WITH NO
SIGNIFICANT WEATHER AND/OR OBSTRUCTIONS TO VISIBILITY.

NYZ071-072-176-178-NJZ106-104-251400-
NEW YORK CITY METRO AREA


CITY           SKY/WX    TMP DP  RH WIND       PRES   REMARKS
CENTRAL PARK   SUNNY     70  55  59 N9        30.06R
LAGUARDIA APRT NOT AVBL
KENNEDY INTL   MOSUNNY   75  54  47 N9        30.03R
NEWARK/LIBERTY MOSUNNY   71  55  56 N10       30.03R
BRNX BOT. GARD   N/A     70  54  56 N8        30.05R
TETERBORO      SUNNY     74  53  48 N7        30.03R
$$

NYZ177-179-078>081-251400-
LONG ISLAND NEW YORK

CITY           SKY/WX    TMP DP  RH WIND       PRES   REMARKS
FARMINGDALE    SUNNY     71  56  58 NE12      30.02R
ISLIP          MOSUNNY   74  53  48 N13       30.00R
SHIRLEY        SUNNY     72  52  49 N8        30.02R
WESTHAMPTON    SUNNY     72  51  47 N12       30.02R
MONTAUK POINT    N/A     69  55  60 N7        30.00R
$$

NYZ052-065-067-251400-
HUDSON VALLEY

CITY           SKY/WX    TMP DP  RH WIND       PRES   REMARKS
WHITE PLAINS   MOSUNNY   69  54  58 N7        30.04R
NEWBURGH       SUNNY     64  57  77 CALM      30.07R
MONTGOMERY     SUNNY     65  55  70 SW3       30.06R
POUGHKEEPSIE   SUNNY     65  55  70 CALM      30.05R
ALBANY         SUNNY     66  56  70 W5        30.05R
$$

NJZ001-105-106-008-010-013-015-019>022-104-251400-
NEW JERSEY

CITY           SKY/WX    TMP DP  RH WIND       PRES   REMARKS
NEWARK/LIBERTY MOSUNNY   71  55  56 N10       30.03R
TETERBORO      SUNNY     74  53  48 N7        30.03R
CALDWELL       SUNNY     69  53  56 NE5       30.04R
MORRISTOWN     MOSUNNY   70  55  60 NE8       30.05R
SOMERVILLE     SUNNY     71  55  56 VRB5      30.03R
LINDEN         FAIR      74  54  50 NE7       30.05R
SUSSEX         SUNNY     66  57  72 CALM      30.06R
ANDOVER          N/A     64  55  72 VRB3      30.07R
TRENTON        SUNNY     69  55  60 N7        30.03R
MILLVILLE      SUNNY     70  56  61 N8        30.03R
ATLANTIC CITY  SUNNY     71  58  63 N7        30.02R
WRIGHTSTOWN    MOSUNNY   70  57  63 N6        30.01R
TOMS RIVER     SUNNY     66  57  72 CALM      30.02S
BELMAR         MOSUNNY   72  55  56 N7        30.02S
$$

PAZ047>061-062-071-251400-
EASTERN PENNSYLVANIA

CITY           SKY/WX    TMP DP  RH WIND       PRES   REMARKS
PHILADELPHIA   MOSUNNY   71  53  52 N8        30.04R
ALLENTOWN      SUNNY     66  50  56 CALM      30.06R
SCRANTON       SUNNY     60  50  69 CALM      30.09R
$$

CTZ002-004>006-009-010-012-RIZ004-006-007-MAZ004-011-015-251400-
SOUTHERN NEW ENGLAND
 IN CT

CITY           SKY/WX    TMP DP  RH WIND       PRES   REMARKS
BRADLEY INTL   SUNNY     68  55  63 N5        30.01R
HARTFORD       SUNNY     68  54  60 N8        30.01R
DANBURY        SUNNY     66  53  63 W7        30.05R
WTRBRY/OXFORD  SUNNY     64  54  68 N6        30.05R
BRIDGEPORT     SUNNY     72  54  53 N8        30.02R
MERIDEN        SUNNY     70  55  59 NW6       30.02R
NEW HAVEN      SUNNY     72  55  55 N9        30.01R
CHESTER        FAIR      68  54  60 N6        30.02R
GROTON         SUNNY     69  53  56 N9        29.98R
WILLIMANTIC    SUNNY     68  53  58 N9        30.00R

 IN RI

CITY           SKY/WX    TMP DP  RH WIND       PRES   REMARKS
PROVIDENCE     MOSUNNY   70  53  54 N8        29.98R
BLOCK ISLAND   SUNNY     66  54  63 N8        29.98R
WESTERLY       SUNNY     70  54  56 VRB7      29.98R

 IN MA

CITY           SKY/WX    TMP DP  RH WIND       PRES   REMARKS
BOSTON         MOSUNNY   71  52  50 NW6       29.97R
WORCESTER      SUNNY     65  51  60 VRB3      30.01R
WESTFIELD      SUNNY     65  55  70 CALM      30.02R
PROVINCETOWN   SUNNY     66  61  82 N9        29.96R
NANTUCKET      PTSUNNY   69  60  73 N10       29.94S
$$

ANZ330-335-338-340-345-350-353-355-251400-
COASTAL MARINE OBSERVATIONS


STATION/POSITION TIME  SKY/WX   TEMP    WIND        PRES    VSBY  WAVE
                                AIR SEA DIR/SP/G                  HT/PER
                 (UTC)          (F)     (DEG/KT/KT) (MB)    (MI)  (FT/S)
NY HARB ENTRANCE NOT AVBL
4S FIRE IS       NOT AVBL
23SW MTP         1300            69 71              1014.7          2/ 8
HUDSON CANYON    1300            72 74   20/ 10/ 12 1014.8          3/ 8
EXECUTION ROCKS  1300            69 71  340/  8/ 12   N/A
WESTERN LI SOUND 1300            68     330/  4/  6   N/A           1
CENTRAL LI SOUND 1200            68 71   20/  8/ 10   N/A           1
EASTERN LI SOUND 1200            69 67   10/ 10/ 14   N/A
ROBBINS REEF     1300            69     360/ 12/ 14   N/A
$$


>>>>>>>>>>>>>>>>>>>>>>>>>>>> KEY <<<<<<<<<<<<<<<<<<<<<<<<<<<
>                                                          <
>     SKY/WX - SKY CONDITION/PRESENT WEATHER               <
>     TMP    - TEMPERATURE IN FAHRENHEIT                   <
>     DP     - DEWPOINT IN FAHRENHEIT                      <
>     RH     - RELATIVE HUMIDITY IN PERCENT                <
>     WIND   - DIRECTION AND SPEED IN MPH                  <
>     PRES   - MEAN SEA LEVEL PRESSURE IN INCHES OF HG     <
>     WCI    - WIND CHILL INDEX                            <
>     VSB    - VISIBILITY IN MILES                         <
>     HX     - HEAT INDEX                                  <
>     TC     - TEMPERATURE IN CELSIUS                      <
>     VRB    - VARIABLE WIND DIRECTION                     <
>                                                          <
>>>>>>>>>>>>>>>>>>>>>>>>>>>> KEY <<<<<<<<<<<<<<<<<<<<<<<<<<<





USA.gov is the U.S. government's official web portal to all federal, state and local government web resources and services.